Regional Weather Roundup
Issued by NWS

Home | Current Version | Previous Version | Text Only | Print | Product List | Glossary On
Versions: 1 2 3 4 5 6 7 8 9 10 11 12 13 14 15 16 17 18 19 20 21 22 23 24 25 26 27 28 29 30 31 32 33 34 35 36 37 38 39 40 41 42 43 44 45 46 47 48 49 50
000
ASUS43 KLMK 261410
RWRKY
KENTUCKY REGIONAL WEATHER ROUNDUP
NATIONAL WEATHER SERVICE LOUISVILLE KY
1000 AM EDT WED JUL 26 2017

NOTE "FAIR" INDICATES FEW OR NO CLOUDS BELOW 12,000 FEET
WITH NO SIGNIFICANT WEATHER AND/OR OBSTRUCTIONS TO VISIBILITY.

KYZ001>023-026-027-061>063-070>075-261500-
WESTERN AND SOUTH CENTRAL KENTUCKY

CITY           SKY/WX    TMP DP  RH WIND       PRES   REMARKS
PADUCAH        SUNNY     84  76  76 SW7       30.07S HX  93
HENDERSON      MOSUNNY   79  73  82 SE5       30.09F
OWENSBORO      SUNNY     79  71  76 SE6       30.10S
HOPKINSVILLE   SUNNY     86  75  68 CALM      30.10S HX  95
BOWLING GREEN  MOSUNNY   80  72  76 E3        30.13R
GLASGOW        MOSUNNY   82  69  64 E3        30.13F
$$

KYZ024-025-028>034-038-045-046-053-261500-
NORTH CENTRAL KENTUCKY

CITY           SKY/WX    TMP DP  RH WIND       PRES   REMARKS
LOUISVILLE/SDF PTSUNNY   74  64  71 VRB3      30.14S
LOUISVILLE/LOU MOSUNNY   76  65  68 CALM      30.14F
FORT KNOX      SUNNY     73  65  75 E7        30.12F
$$

KYZ035>037-039>044-047>052-055>060-089>105-261500-
NORTHEAST KENTUCKY

CITY           SKY/WX    TMP DP  RH WIND       PRES   REMARKS
LEXINGTON      SUNNY     75  63  66 S3        30.17S
COVINGTON      MOSUNNY   72  64  76 VRB5      30.16F
FRANKFORT      SUNNY     73  63  70 SE3       30.15S
$$

KYZ054-064>069-076>088-106>120-261500-
SOUTHEAST KENTUCKY

CITY           SKY/WX    TMP DP  RH WIND       PRES   REMARKS
JACKSON        SUNNY     72  64  76 CALM      30.18S
LONDON         PTSUNNY   74  65  73 CALM      30.18R
SOMERSET       CLOUDY    72  64  78 CALM      30.18R
MIDDLESBORO    CLOUDY    69  67  95 CALM      30.20R
MONTICELLO     CLOUDY    73  69  87 N14       30.18R
$$




USA.gov is the U.S. government's official web portal to all federal, state and local government web resources and services.